AAL1239 KIAH-KDFW

Flight info

Callsign AAL1239
Flight time 0h 46m
Altitude 30000
Route BLTWY7 CRIED BEREE3
Aircraft B38M/M-SDE1FGHILORVWXY/HB1

Departure

Time 2026-05-05 16:25
Airport George Bush Intercontinental Airport (KIAH)

Arrival

Time 2026-05-05 17:12
Airport Dallas Fort Worth International Airport (KDFW)
Time Latitude Longitude Altitude Speed Heading
2026-05-05 16:17 29.98525 -95.35045 105 ft 0 kts 359°
2026-05-05 16:18 29.98503 -95.35044 102 ft 2 kts 358°
2026-05-05 16:19 29.98487 -95.35043 103 ft 2 kts 356°
2026-05-05 16:19 29.98470 -95.35042 104 ft 2 kts 354°
2026-05-05 16:19 29.98438 -95.35035 104 ft 2 kts 341°
2026-05-05 16:20 29.98420 -95.35027 104 ft 0 kts 340°
2026-05-05 16:22 29.98423 -95.35036 104 ft 3 kts 279°
2026-05-05 16:23 29.98427 -95.35190 103 ft 15 kts 298°
2026-05-05 16:23 29.98518 -95.35271 104 ft 20 kts 323°
2026-05-05 16:23 29.98827 -95.35475 106 ft 30 kts 329°
2026-05-05 16:24 29.98844 -95.35644 105 ft 24 kts 241°
2026-05-05 16:24 29.98752 -95.35760 108 ft 13 kts 160°
2026-05-05 16:24 29.98283 -95.35474 105 ft 89 kts 152°
2026-05-05 16:25 29.97587 -95.35047 103 ft 137 kts 152°
2026-05-05 16:25 29.95641 -95.33935 669 ft 167 kts 156°
2026-05-05 16:25 29.94698 -95.33132 1098 ft 176 kts 129°
2026-05-05 16:26 29.94907 -95.30311 2134 ft 212 kts 52°
2026-05-05 16:26 29.97240 -95.29185 2947 ft 241 kts 357°
2026-05-05 16:27 29.98994 -95.29499 3184 ft 271 kts 341°
2026-05-05 16:27 30.00825 -95.30217 3742 ft 281 kts 337°
2026-05-05 16:27 30.02682 -95.30978 4584 ft 286 kts 337°
2026-05-05 16:27 30.04550 -95.31730 5490 ft 284 kts 338°
2026-05-05 16:28 30.06425 -95.32480 6380 ft 284 kts 337°
2026-05-05 16:28 30.08286 -95.33217 7240 ft 283 kts 337°
2026-05-05 16:28 30.10156 -95.33957 8042 ft 284 kts 338°
2026-05-05 16:28 30.12025 -95.34696 8872 ft 285 kts 338°
2026-05-05 16:29 30.13905 -95.35439 9694 ft 286 kts 338°
2026-05-05 16:29 30.15797 -95.36188 10371 ft 292 kts 338°
2026-05-05 16:29 30.17789 -95.36976 10703 ft 312 kts 338°
2026-05-05 16:29 30.19900 -95.37811 11025 ft 329 kts 338°
2026-05-05 16:30 30.22099 -95.38681 11557 ft 336 kts 338°
2026-05-05 16:30 30.24317 -95.39561 12375 ft 337 kts 338°
2026-05-05 16:30 30.26509 -95.40431 13139 ft 339 kts 338°
2026-05-05 16:30 30.28769 -95.41329 13920 ft 340 kts 337°
2026-05-05 16:31 30.31036 -95.42074 14591 ft 347 kts 345°
2026-05-05 16:31 30.33411 -95.42614 15268 ft 350 kts 343°
2026-05-05 16:31 30.35810 -95.43187 15903 ft 354 kts 343°
2026-05-05 16:31 30.38234 -95.43780 16553 ft 357 kts 342°
2026-05-05 16:32 30.40678 -95.44388 17180 ft 361 kts 342°
2026-05-05 16:32 30.43149 -95.45006 17793 ft 365 kts 342°
2026-05-05 16:32 30.45654 -95.45634 18390 ft 369 kts 341°
2026-05-05 16:32 30.48172 -95.46266 18937 ft 371 kts 341°
2026-05-05 16:33 30.50712 -95.46883 19496 ft 374 kts 342°
2026-05-05 16:33 30.53270 -95.47458 20063 ft 376 kts 342°
2026-05-05 16:33 30.55848 -95.48041 20638 ft 378 kts 342°
2026-05-05 16:33 30.58429 -95.48628 21187 ft 380 kts 341°
2026-05-05 16:34 30.60998 -95.49210 21730 ft 382 kts 341°
2026-05-05 16:34 30.63619 -95.49802 22261 ft 384 kts 341°
2026-05-05 16:34 30.66285 -95.50404 22809 ft 386 kts 341°
2026-05-05 16:34 30.68897 -95.50994 23319 ft 389 kts 341°
2026-05-05 16:35 30.71560 -95.51597 23771 ft 391 kts 341°
2026-05-05 16:35 30.74235 -95.52202 24216 ft 393 kts 341°
2026-05-05 16:35 30.76918 -95.52810 24673 ft 394 kts 341°
2026-05-05 16:35 30.79612 -95.53421 25108 ft 395 kts 341°
2026-05-05 16:36 30.82315 -95.54034 25542 ft 397 kts 340°
2026-05-05 16:36 30.85033 -95.54650 25959 ft 398 kts 340°
2026-05-05 16:36 30.87753 -95.55268 26374 ft 400 kts 340°
2026-05-05 16:36 30.90488 -95.55889 26782 ft 401 kts 340°
2026-05-05 16:37 30.93236 -95.56514 27185 ft 403 kts 340°
2026-05-05 16:37 30.95994 -95.57141 27583 ft 404 kts 340°
2026-05-05 16:37 30.98762 -95.57770 27979 ft 405 kts 340°
2026-05-05 16:37 31.01530 -95.58401 28355 ft 407 kts 340°
2026-05-05 16:38 31.04320 -95.59036 28730 ft 409 kts 340°
2026-05-05 16:38 31.07113 -95.59673 29098 ft 410 kts 340°
2026-05-05 16:38 31.09921 -95.60314 29483 ft 411 kts 339°
2026-05-05 16:38 31.12738 -95.60957 29812 ft 414 kts 339°
2026-05-05 16:39 31.18355 -95.62239 29881 ft 412 kts 339°
2026-05-05 16:39 31.23969 -95.63523 29873 ft 411 kts 339°
2026-05-05 16:40 31.29589 -95.64810 29876 ft 411 kts 339°
2026-05-05 16:40 31.35117 -95.66279 29847 ft 397 kts 328°
2026-05-05 16:41 31.39846 -95.69397 29868 ft 390 kts 322°
2026-05-05 16:41 31.44502 -95.72642 29853 ft 389 kts 322°
2026-05-05 16:42 31.49129 -95.75929 29863 ft 389 kts 322°
2026-05-05 16:42 31.53741 -95.79221 29844 ft 388 kts 322°
2026-05-05 16:43 31.58347 -95.82515 29851 ft 388 kts 322°
2026-05-05 16:43 31.62918 -95.85787 29863 ft 387 kts 321°
2026-05-05 16:44 31.67517 -95.89083 29865 ft 387 kts 321°
2026-05-05 16:44 31.72107 -95.92377 29863 ft 386 kts 321°
2026-05-05 16:45 31.76692 -95.95671 29860 ft 386 kts 321°
2026-05-05 16:45 31.81273 -95.98966 29845 ft 386 kts 321°
2026-05-05 16:46 31.85850 -96.02264 29844 ft 386 kts 321°
2026-05-05 16:46 31.90439 -96.05579 29743 ft 389 kts 321°
2026-05-05 16:47 31.95047 -96.08910 29613 ft 389 kts 321°
2026-05-05 16:47 31.97348 -96.10575 29509 ft 389 kts 321°
2026-05-05 16:47 31.99652 -96.12239 29357 ft 389 kts 321°
2026-05-05 16:48 32.01965 -96.13910 29175 ft 390 kts 321°
2026-05-05 16:48 32.04277 -96.15581 28977 ft 391 kts 322°
2026-05-05 16:48 32.06600 -96.17261 28747 ft 392 kts 321°
2026-05-05 16:48 32.08932 -96.18948 28501 ft 393 kts 322°
2026-05-05 16:49 32.11269 -96.20640 28158 ft 395 kts 322°
2026-05-05 16:49 32.13614 -96.22339 27829 ft 397 kts 322°
2026-05-05 16:49 32.15972 -96.24047 27494 ft 399 kts 322°
2026-05-05 16:49 32.18349 -96.25772 27158 ft 401 kts 322°
2026-05-05 16:50 32.20729 -96.27499 26836 ft 404 kts 322°
2026-05-05 16:50 32.23129 -96.29241 26397 ft 406 kts 322°
2026-05-05 16:50 32.25545 -96.30997 25965 ft 408 kts 322°
2026-05-05 16:50 32.27917 -96.32844 25521 ft 406 kts 315°
2026-05-05 16:51 32.29907 -96.35121 25120 ft 404 kts 311°
2026-05-05 16:51 32.31939 -96.37435 24708 ft 404 kts 312°
2026-05-05 16:51 32.33937 -96.39718 24309 ft 395 kts 311°
2026-05-05 16:51 32.35890 -96.41958 23921 ft 387 kts 311°
2026-05-05 16:52 32.37800 -96.44152 23538 ft 379 kts 311°
2026-05-05 16:52 32.39678 -96.46311 23106 ft 373 kts 311°
2026-05-05 16:52 32.41523 -96.48434 22633 ft 367 kts 311°
2026-05-05 16:52 32.43336 -96.50522 22195 ft 362 kts 311°
2026-05-05 16:53 32.45132 -96.52591 21750 ft 357 kts 311°
2026-05-05 16:53 32.46899 -96.54626 21300 ft 353 kts 311°
2026-05-05 16:53 32.48654 -96.56641 20864 ft 350 kts 312°
2026-05-05 16:53 32.50395 -96.58638 20421 ft 346 kts 312°
2026-05-05 16:54 32.52118 -96.60615 20009 ft 344 kts 312°
2026-05-05 16:54 32.53830 -96.62578 19540 ft 342 kts 312°
2026-05-05 16:54 32.55540 -96.64540 19015 ft 343 kts 312°
2026-05-05 16:54 32.57274 -96.66509 18487 ft 345 kts 313°
2026-05-05 16:55 32.59016 -96.68471 17952 ft 346 kts 313°
2026-05-05 16:55 32.60765 -96.70443 17364 ft 347 kts 313°
2026-05-05 16:55 32.62518 -96.72421 16782 ft 348 kts 313°
2026-05-05 16:55 32.64272 -96.74402 16208 ft 348 kts 313°
2026-05-05 16:56 32.66024 -96.76384 15649 ft 349 kts 313°
2026-05-05 16:56 32.67776 -96.78370 15099 ft 349 kts 313°
2026-05-05 16:56 32.69529 -96.80358 14557 ft 347 kts 313°
2026-05-05 16:56 32.71263 -96.82326 14031 ft 344 kts 314°
2026-05-05 16:57 32.72987 -96.84283 13502 ft 341 kts 314°
2026-05-05 16:57 32.74690 -96.86218 12905 ft 338 kts 314°
2026-05-05 16:57 32.76380 -96.88141 12328 ft 336 kts 314°
2026-05-05 16:57 32.78048 -96.90025 12095 ft 323 kts 316°
2026-05-05 16:58 32.79940 -96.91345 12076 ft 314 kts 339°
2026-05-05 16:58 32.82048 -96.91569 12072 ft 306 kts 358°
2026-05-05 16:58 32.84118 -96.91487 12066 ft 281 kts 354°
2026-05-05 16:58 32.85996 -96.91465 12065 ft 261 kts 354°
2026-05-05 16:59 32.87749 -96.91450 12053 ft 250 kts 353°
2026-05-05 16:59 32.89493 -96.91438 11798 ft 247 kts 354°
2026-05-05 16:59 32.91190 -96.91425 11477 ft 247 kts 354°
2026-05-05 16:59 32.92912 -96.91413 11176 ft 247 kts 354°
2026-05-05 17:00 32.94631 -96.91402 10878 ft 247 kts 354°
2026-05-05 17:00 32.96349 -96.91391 10630 ft 247 kts 354°
2026-05-05 17:00 32.98064 -96.91379 10422 ft 245 kts 354°
2026-05-05 17:00 32.99775 -96.91368 10092 ft 247 kts 354°
2026-05-05 17:01 33.01495 -96.91356 9820 ft 247 kts 354°
2026-05-05 17:01 33.03208 -96.91345 9647 ft 247 kts 354°
2026-05-05 17:01 33.04929 -96.91335 9506 ft 247 kts 354°
2026-05-05 17:01 33.06638 -96.91325 9561 ft 243 kts 353°
2026-05-05 17:02 33.08327 -96.91315 9507 ft 245 kts 354°
2026-05-05 17:02 33.10091 -96.91304 8963 ft 262 kts 355°
2026-05-05 17:02 33.11952 -96.91292 8388 ft 273 kts 355°
2026-05-05 17:02 33.13891 -96.91280 7860 ft 282 kts 355°
2026-05-05 17:03 33.15875 -96.91267 7348 ft 290 kts 356°
2026-05-05 17:03 33.17918 -96.91254 6839 ft 297 kts 356°
2026-05-05 17:03 33.20009 -96.91249 6333 ft 304 kts 355°
2026-05-05 17:03 33.22122 -96.91342 6050 ft 298 kts 347°
2026-05-05 17:04 33.23920 -96.92261 6018 ft 271 kts 313°
2026-05-05 17:04 33.24884 -96.94023 5996 ft 244 kts 279°
2026-05-05 17:04 33.24779 -96.95899 5959 ft 223 kts 243°
2026-05-05 17:04 33.23789 -96.97234 6022 ft 212 kts 218°
2026-05-05 17:05 33.22612 -96.98272 6017 ft 214 kts 218°
2026-05-05 17:05 33.21413 -96.99320 6016 ft 214 kts 218°
2026-05-05 17:05 33.20201 -97.00359 6010 ft 214 kts 217°
2026-05-05 17:05 33.18998 -97.01406 6021 ft 214 kts 218°
2026-05-05 17:06 33.17788 -97.02451 6061 ft 215 kts 218°
2026-05-05 17:06 33.16483 -97.03324 5996 ft 219 kts 198°
2026-05-05 17:06 33.14963 -97.03288 5949 ft 222 kts 174°
2026-05-05 17:06 33.13422 -97.03023 5948 ft 225 kts 179°
2026-05-05 17:07 33.11840 -97.02843 5511 ft 233 kts 180°
2026-05-05 17:07 33.10184 -97.02710 5012 ft 243 kts 181°
2026-05-05 17:07 33.08468 -97.02629 4553 ft 246 kts 182°
2026-05-05 17:07 33.06868 -97.02586 4522 ft 212 kts 184°
2026-05-05 17:08 33.05527 -97.02565 4517 ft 172 kts 186°
2026-05-05 17:08 33.04415 -97.02557 4414 ft 157 kts 187°
2026-05-05 17:08 33.03330 -97.02558 3920 ft 154 kts 186°
2026-05-05 17:08 33.02289 -97.02539 3522 ft 146 kts 186°
2026-05-05 17:09 33.01280 -97.02533 3141 ft 143 kts 186°
2026-05-05 17:09 33.00289 -97.02510 2754 ft 142 kts 182°
2026-05-05 17:09 32.99308 -97.02504 2441 ft 141 kts 179°
2026-05-05 17:09 32.98329 -97.02528 2201 ft 141 kts 183°
2026-05-05 17:10 32.97351 -97.02542 1981 ft 139 kts 181°
2026-05-05 17:10 32.96385 -97.02561 1729 ft 139 kts 181°
2026-05-05 17:10 32.95411 -97.02576 1381 ft 140 kts 181°
2026-05-05 17:10 32.94426 -97.02557 1171 ft 143 kts 184°
2026-05-05 17:11 32.93427 -97.02570 1012 ft 145 kts 185°
2026-05-05 17:11 32.92416 -97.02584 781 ft 147 kts 182°
2026-05-05 17:11 32.91406 -97.02593 589 ft 143 kts 184°
2026-05-05 17:11 32.90535 -97.02608 580 ft 94 kts 180°
2026-05-05 17:12 32.90075 -97.02620 577 ft 44 kts 189°
2026-05-05 17:12 32.89865 -97.02724 574 ft 31 kts 209°
2026-05-05 17:12 32.89751 -97.02896 580 ft 25 kts 270°
2026-05-05 17:12 32.89749 -97.03098 585 ft 23 kts 270°
2026-05-05 17:13 32.89754 -97.03260 598 ft 16 kts 271°
2026-05-05 17:13 32.89776 -97.03317 599 ft 3 kts 342°
2026-05-05 17:13 32.89789 -97.03317 599 ft 3 kts 360°
2026-05-05 17:13 32.89829 -97.03317 599 ft 9 kts
2026-05-05 17:14 32.89880 -97.03317 599 ft 14 kts
2026-05-05 17:14 32.90005 -97.03317 599 ft 22 kts
2026-05-05 17:14 32.90096 -97.03338 599 ft 11 kts 308°
2026-05-05 17:14 32.90111 -97.03417 600 ft 10 kts 270°
2026-05-05 17:15 32.90111 -97.03508 600 ft 11 kts 275°
2026-05-05 17:15 32.90143 -97.03546 600 ft 5 kts 353°
2026-05-05 17:15 32.90180 -97.03536 600 ft 6 kts 19°
2026-05-05 17:15 32.90218 -97.03530 600 ft 3 kts 340°
2026-05-05 17:16 32.90235 -97.03546 600 ft 3 kts 309°
2026-05-05 17:16 32.90254 -97.03572 600 ft 5 kts 310°
2026-05-05 17:16 32.90255 -97.03575 600 ft 0 kts 310°